Regional Weather Roundup
Issued by NWS

Home | Current Version | Previous Version | Text Only | Print | Product List | Glossary Off
Versions: 1 2 3 4 5 6 7 8 9 10 11 12 13 14 15 16 17 18 19 20 21 22 23 24 25 26 27

000
ASUS45 KSLC 160910
RWRUT

UTAH REGIONAL WEATHER ROUNDUP
NATIONAL WEATHER SERVICE SALT LAKE CITY UT
200 AM MST MON JAN 16 2017

UTZ001>011-023>025-161000-

NORTHERN UTAH

CITY           SKY/WX    TMP DP  RH WIND       PRES   REMARKS
BRIGHAM CITY     N/A     12   8  83 CALM      30.25R
HILL AFB       CLOUDY    17  11  77 E9        30.20R WCI   6
LOGAN          FOG        0  -1  96 CALM      30.27R VSB 1/4
OGDEN          CLOUDY    19  14  81 S6        30.21R WCI  11
SALT LAKE CITY CLOUDY    27  22  81 NW13      30.22R WCI  16
TOOELE VALLEY  CLOUDY    27  25  93 NW7       30.23R WCI  19
WENDOVER       CLEAR     21  19  93 SW5       30.23S WCI  15
HEBER CITY     SNOW       9   5  85 CALM      30.17R VSB 1/4
WEST JORDAN    CLOUDY    26  26 100 NW8       30.21R WCI  17

$$

UTZ011>015-024>027-161000-

CENTRAL/NORTHEAST UTAH

CITY           SKY/WX    TMP DP  RH WIND       PRES   REMARKS
PROVO AIRPORT  FLURRIES  27  22  81 N5        30.20S WCI  22
MOAB/CANYONLAN CLOUDY    33  33 100 CALM      29.98R
DELTA          CLEAR     25  23  93 CALM      30.19R
PRICE          CLOUDY    23  17  78 N6        29.97R WCI  16
RICHFIELD      CLOUDY    30  25  80 NE5       30.17R WCI  25
ROOSEVELT      CLOUDY    28  25  86 CALM      30.11R
VERNAL         CLOUDY    25  22  88 CALM      30.08R

$$

UTZ013>016-019>022-027-161000-

SOUTHERN UTAH

CITY           SKY/WX    TMP DP  RH WIND       PRES   REMARKS
BRYCE CANYON   PTCLDY    19  16  88 NW13      30.02S WCI   6
CEDAR CITY     CLOUDY    28  20  71 N9        30.10S WCI  19
MILFORD        CLOUDY    29  23  78 N12       30.15R WCI  19
ST GEORGE      MOSUNNY   34  25  69 S6        30.10S WCI  29
HANKSVILLE     CLOUDY    36  36 100 MISG      30.01R
KANAB          CLEAR     28  28 100 CALM      30.08R
BLANDING       CLOUDY    35  34  99 CALM      30.00S

$$

REGIONAL REPORTS     COLORADO/ARIZONA

CITY           SKY/WX    TMP DP  RH WIND       PRES   REMARKS
CRAIG, CO      CLOUDY    17  13  84 W8        30.07R WCI   7
GRAND JUNCTION CLOUDY    32  27  81 NE6       29.99R WCI  26
RIFLE, CO      CLOUDY    31  25  78 CALM      30.00R
MONTROSE, CO   LGT SNOW  31  31 100 CALM      29.99R FOG
CORTEZ, CO     CLOUDY    35  33  92 W9        29.91S WCI  28
COLORADO CITY  CLOUDY    28  28 100 CALM      30.06S
PAGE, AZ       CLOUDY    42  28  57 N8        29.97R
GRAND CANYON   CLOUDY    33  32  96 VRB7      30.01R WCI  27
KINGMAN, AZ    PTCLDY    34  30  85 SE6       30.03S WCI  29
FLAGSTAFF, AZ  CLOUDY    33  31  92 W6        29.99S WCI  28

$$

REGIONAL REPORTS    NEVADA/IDAHO/WYOMING

CITY           SKY/WX    TMP DP  RH WIND       PRES   REMARKS
LAS VEGAS, NV  CLOUDY    47  27  45 N5        30.05R
ELY, NY        CLOUDY    21  19  92 N12       30.16S WCI   9
ELKO, NV       CLOUDY    22  17  81 N5        30.25S WCI  16
POCATELLO, ID  LGT SNOW  12   9  87 CALM      30.31R FOG
BURLEY, ID     CLOUDY     9   5  84 N3        30.30S
FORT BRIDGER,    N/A     14  14 100 W16       30.10R WCI  -2
EVANSTON, WY   CLOUDY     8   2  76 CALM      30.09R
ROCK SPRINGS,  CLOUDY     1  -3  83 NW7       30.09R WCI -12

$$




USA.gov is the U.S. government's official web portal to all federal, state and local government web resources and services.